N1OTX Weather Reports


time (UTC)temp
F
wind
direction
speed
knots
gust
knots
rain 1hr
in
rain 24hr
in
rain mn
in
humidity
%
barometer
mb
20210927075516 53 225 0.9 2.6 0.00 0.26 0.00 82 1012.2
20210927075016 53 0.0 2.6 0.00 0.26 0.00 82 1012.2
20210927074516 53 0.0 2.6 0.00 0.26 0.00 82 1012.2
20210927074016 53 0.0 0.9 0.00 0.26 0.00 81 1012.3
20210927073516 53 0.0 1.7 0.00 0.26 0.00 81 1012.2
20210927073016 53 0.0 0.9 0.00 0.26 0.00 81 1012.2
20210927072516 53 0.0 0.9 0.00 0.26 0.00 81 1012.2
20210927072016 53 0.0 1.7 0.00 0.26 0.00 81 1012.3
20210927071516 53 0.0 0.9 0.00 0.26 0.00 80 1012.3
20210927071016 54 0.0 0.9 0.00 0.26 0.00 80 1012.2
20210927070516 54 0.0 2.6 0.00 0.26 0.00 80 1012.3
20210927070016 54 203 0.9 2.6 0.00 0.26 0.00 80 1012.3
20210927065516 54 203 0.9 4.3 0.00 0.26 0.00 80 1012.2
20210927065016 54 0.0 0.9 0.00 0.26 0.00 80 1012.2
20210927064516 54 203 0.9 2.6 0.00 0.26 0.00 81 1012.2
20210927064016 53 203 0.9 3.5 0.00 0.26 0.00 81 1012.2
20210927063516 53 0.0 2.6 0.00 0.26 0.00 82 1012.2
20210927063016 53 203 0.9 2.6 0.00 0.26 0.00 82 1012.2
20210927062516 53 158 0.9 4.3 0.00 0.26 0.00 83 1012.2
20210927062016 53 0.0 1.7 0.00 0.26 0.00 83 1012.2
20210927061516 53 0.0 0.0 0.00 0.26 0.00 83 1012.1
20210927061016 53 0.0 1.7 0.00 0.26 0.00 82 1012.1
20210927060516 53 0.0 0.0 0.00 0.26 0.00 82 1012.1
20210927060016 54 0.0 1.7 0.00 0.26 0.00 81 1012.1
20210927055516 54 0.0 0.0 0.00 0.26 0.00 81 1012.1
20210927055016 54 0.0 0.0 0.00 0.26 0.00 80 1012.1
20210927054516 54 0.0 1.7 0.00 0.26 0.00 80 1012.1
20210927054016 54 203 0.9 2.6 0.00 0.26 0.00 80 1012.1
20210927053516 54 0.0 1.7 0.00 0.26 0.00 80 1012.2
20210927053016 54 0.0 0.9 0.00 0.26 0.00 80 1012.1
20210927052516 54 225 0.9 4.3 0.00 0.26 0.00 81 1012.0
20210927052016 54 203 0.9 3.5 0.00 0.26 0.00 80 1011.9
20210927051516 54 0.0 0.9 0.00 0.26 0.00 81 1011.8
20210927051016 54 0.0 0.9 0.00 0.26 0.00 80 1011.7
20210927050516 54 135 0.9 2.6 0.00 0.26 0.00 80 1011.6
20210927050016 54 0.0 0.9 0.00 0.26 0.00 80 1011.5
20210927045516 54 0.0 0.9 0.00 0.26 0.00 79 1011.6
20210927045016 54 0.0 1.7 0.00 0.26 0.00 81 1011.6
20210927044516 53 0.0 0.9 0.00 0.26 0.00 81 1011.6
20210927044016 53 0.0 0.9 0.00 0.26 0.00 81 1011.5
20210927043516 53 0.0 0.9 0.00 0.26 0.00 81 1011.5
20210927043016 54 0.0 0.9 0.00 0.26 0.00 81 1011.4
20210927042516 53 0.0 0.9 0.00 0.26 0.00 82 1011.5
20210927042016 53 0.0 0.9 0.00 0.26 0.00 82 1011.4
20210927041516 53 0.0 0.0 0.00 0.26 0.00 82 1011.4
20210927041016 53 0.0 0.0 0.00 0.26 0.00 82 1011.4
20210927040516 53 0.0 0.9 0.00 0.26 0.00 83 1011.3
20210927040016 53 0.0 0.0 0.00 0.26 0.26 83 1011.4
20210927035516 53 0.0 0.0 0.00 0.26 0.26 83 1011.4
20210927035016 53 0.0 0.9 0.00 0.26 0.26 83 1011.5
20210927034516 53 0.0 0.0 0.00 0.26 0.26 83 1011.5
20210927034016 53 0.0 0.9 0.00 0.26 0.26 83 1011.4
20210927033516 53 0.0 0.9 0.00 0.26 0.26 82 1011.4
20210927033016 53 0.0 0.0 0.00 0.26 0.26 82 1011.3
20210927032516 54 0.0 0.0 0.00 0.26 0.26 82 1011.3
20210927032016 54 0.0 0.0 0.00 0.26 0.26 82 1011.4
20210927031516 54 0.0 0.0 0.00 0.26 0.26 81 1011.4
20210927031016 54 0.0 0.0 0.00 0.26 0.26 81 1011.4
20210927030516 54 0.0 0.0 0.00 0.26 0.26 81 1011.4
20210927030016 54 0.0 0.0 0.00 0.26 0.26 81 1011.3
20210927025516 54 0.0 0.0 0.00 0.26 0.26 80 1011.4
20210927025016 54 0.0 0.0 0.00 0.26 0.26 80 1011.3
20210927024516 55 0.0 0.0 0.00 0.26 0.26 79 1011.3
20210927024016 55 0.0 0.0 0.00 0.26 0.26 79 1011.4
20210927023516 55 0.0 0.0 0.00 0.26 0.26 79 1011.3
20210927023016 55 0.0 0.0 0.00 0.26 0.26 78 1011.3
20210927022516 55 0.0 0.0 0.00 0.26 0.26 79 1011.3
20210927022016 55 0.0 1.7 0.00 0.26 0.26 79 1011.2
20210927021516 55 0.0 0.0 0.00 0.26 0.26 79 1011.2
20210927021016 55 0.0 0.0 0.00 0.26 0.26 78 1011.2
20210927020516 56 0.0 0.0 0.00 0.26 0.26 77 1011.1
20210927020016 56 0.0 0.0 0.00 0.26 0.26 77 1011.1
20210927015516 56 0.0 0.0 0.00 0.26 0.26 77 1011.1
20210927015016 56 0.0 0.9 0.00 0.26 0.26 76 1011.1
20210927014515 57 0.0 0.0 0.00 0.26 0.26 76 1011.0
20210927014016 57 0.0 0.0 0.00 0.26 0.26 75 1010.9
20210927013516 57 0.0 0.0 0.00 0.26 0.26 73 1010.9
20210927013015 58 0.0 0.9 0.00 0.26 0.26 73 1010.9
20210927012516 58 0.0 2.6 0.00 0.26 0.26 72 1010.8
20210927012016 58 0.0 0.9 0.00 0.26 0.26 74 1010.8
20210927011515 58 0.0 0.9 0.00 0.26 0.26 73 1010.9
20210927011015 58 0.0 1.7 0.00 0.26 0.26 72 1010.9
20210927010516 58 0.0 1.7 0.00 0.26 0.26 73 1010.8
20210927010016 57 315 0.9 2.6 0.00 0.26 0.26 74 1010.6
20210927005515 57 0.0 2.6 0.00 0.26 0.26 77 1010.6
20210927005016 57 0.0 1.7 0.00 0.26 0.26 77 1010.5
20210927004516 57 0.0 1.7 0.00 0.26 0.26 76 1010.5
20210927004016 57 0.0 1.7 0.00 0.26 0.26 76 1010.4
20210927003515 57 0.0 0.0 0.00 0.26 0.26 75 1010.5
20210927003016 57 0.0 0.0 0.00 0.26 0.26 75 1010.4
20210927002516 58 0.0 0.0 0.00 0.26 0.26 75 1010.3
20210927002016 58 0.0 0.0 0.00 0.26 0.26 74 1010.2
20210927001516 58 0.0 0.0 0.00 0.26 0.26 75 1010.1
20210927001015 58 0.0 0.0 0.00 0.26 0.26 73 1010.0
20210927000515 59 0.0 0.0 0.00 0.26 0.26 71 1010.0
20210927000016 59 0.0 0.9 0.00 0.26 0.26 71 1010.0
20210926235515 59 0.0 0.9 0.00 0.26 0.26 70 1009.9
20210926235015 60 0.0 1.7 0.00 0.26 0.26 71 1009.9
20210926234516 60 0.0 1.7 0.00 0.26 0.26 70 1009.8
20210926234015 60 0.0 0.9 0.00 0.26 0.26 70 1009.9
20210926233515 60 0.0 1.7 0.00 0.26 0.26 70 1009.8
20210926233015 59 0.0 1.7 0.00 0.26 0.26 70 1009.7
20210926232515 59 0.0 3.5 0.00 0.26 0.26 72 1009.6
20210926232015 59 0.0 0.9 0.00 0.26 0.26 73 1009.6
20210926231516 59 0.0 0.0 0.00 0.26 0.26 73 1009.5
20210926231016 59 0.0 0.0 0.00 0.26 0.26 72 1009.4
20210926230515 59 0.0 0.0 0.00 0.26 0.26 72 1009.3
20210926230016 60 0.0 0.0 0.00 0.26 0.26 72 1009.2
20210926225515 60 0.0 0.0 0.00 0.26 0.26 71 1009.2
20210926225016 60 0.0 0.0 0.00 0.26 0.26 69 1009.2
20210926224515 61 0.0 0.0 0.00 0.26 0.26 68 1009.1
20210926224015 61 0.0 0.0 0.00 0.26 0.26 68 1009.0
20210926223515 62 0.0 0.9 0.00 0.26 0.26 67 1008.9
20210926223016 62 0.0 0.9 0.00 0.26 0.26 66 1008.8
20210926222516 62 0.0 0.9 0.00 0.26 0.26 67 1008.7
20210926222015 62 0.0 0.9 0.00 0.26 0.26 66 1008.6
20210926221515 63 0.0 1.7 0.00 0.26 0.26 63 1008.6
20210926221015 63 0.0 0.9 0.00 0.26 0.26 65 1008.5
20210926220515 64 0.0 2.6 0.00 0.26 0.26 66 1008.5
20210926220015 65 0.0 1.7 0.00 0.26 0.26 58 1008.5
20210926215515 65 0.0 2.6 0.00 0.26 0.26 58 1008.4
20210926215016 65 0 0.9 3.5 0.00 0.26 0.26 58 1008.4
20210926214515 65 23 0.9 6.1 0.00 0.26 0.26 64 1008.4
20210926214015 65 0.0 2.6 0.00 0.26 0.26 59 1008.3
20210926213515 66 338 0.9 1.7 0.00 0.26 0.26 59 1008.2
20210926213016 66 0 0.9 2.6 0.00 0.26 0.26 56 1008.1
20210926212515 67 0 1.7 5.2 0.00 0.26 0.26 57 1007.9
20210926212015 67 0 1.7 4.3 0.00 0.26 0.26 54 1007.9
20210926211515 67 90 1.7 10.4 0.00 0.26 0.26 54 1007.9
20210926211015 67 23 1.7 4.3 0.00 0.26 0.26 53 1007.8
20210926210515 67 23 1.7 7.0 0.00 0.26 0.26 56 1007.7
20210926210015 67 113 0.9 2.6 0.00 0.26 0.26 56 1007.6
20210926205515 68 315 0.9 2.6 0.00 0.26 0.26 54 1007.5
20210926205015 68 0 1.7 4.3 0.00 0.26 0.26 52 1007.4
20210926204515 69 0 2.6 8.7 0.00 0.26 0.26 52 1007.4
20210926204015 69 23 1.7 4.3 0.00 0.26 0.26 52 1007.3
20210926203515 69 293 1.7 8.7 0.00 0.26 0.26 51 1007.1
20210926203015 69 23 0.9 4.3 0.00 0.26 0.26 49 1007.1
20210926202515 69 0 1.7 6.1 0.00 0.26 0.26 48 1007.1
20210926202015 69 203 0.9 4.3 0.00 0.26 0.26 51 1007.0
20210926201516 69 0 0.9 4.3 0.00 0.26 0.26 50 1007.1
20210926201015 69 68 1.7 6.1 0.00 0.26 0.26 51 1007.1
20210926200515 69 0 0.9 4.3 0.00 0.26 0.26 51 1007.0
20210926200015 69 338 0.9 2.6 0.00 0.26 0.26 58 1006.9
20210926195515 69 338 1.7 4.3 0.00 0.26 0.26 52 1006.9
20210926195015 70 0 2.6 7.0 0.00 0.26 0.26 48 1006.9
20210926194515 70 0 2.6 6.1 0.00 0.26 0.26 47 1006.8
20210926194015 70 0 2.6 5.2 0.00 0.26 0.26 48 1006.7
20210926193515 70 23 1.7 4.3 0.00 0.26 0.26 51 1006.6
20210926193015 70 0 3.5 7.0 0.00 0.26 0.26 51 1006.6
20210926192515 70 0 1.7 5.2 0.00 0.26 0.26 48 1006.6
20210926192015 70 0 2.6 7.8 0.00 0.26 0.26 47 1006.6
20210926191515 70 338 3.5 7.0 0.00 0.26 0.26 48 1006.6
20210926191015 71 0 1.7 7.0 0.00 0.26 0.26 51 1006.6
20210926190515 71 338 2.6 11.3 0.00 0.26 0.26 50 1006.5
20210926190015 71 45 1.7 3.5 0.00 0.26 0.26 51 1006.6
20210926185515 71 0 2.6 6.1 0.00 0.26 0.26 52 1006.6
20210926185015 72 23 2.6 10.4 0.00 0.26 0.26 55 1006.5
20210926184515 71 23 1.7 7.8 0.00 0.26 0.26 54 1006.5
20210926184015 71 0 2.6 10.4 0.00 0.26 0.26 54 1006.5
20210926183515 72 0 1.7 7.0 0.00 0.26 0.26 59 1006.5
20210926183015 72 0 3.5 7.8 0.00 0.26 0.26 56 1006.4
20210926182515 72 338 1.7 6.1 0.00 0.26 0.26 65 1006.4
20210926182015 70 0.0 2.6 0.00 0.26 0.26 68 1006.4
20210926181515 69 0.0 2.6 0.00 0.26 0.26 68 1006.4
20210926181015 70 0 0.9 3.5 0.00 0.26 0.26 66 1006.4
20210926180515 70 45 0.9 1.7 0.00 0.26 0.26 65 1006.4
20210926180015 70 0 1.7 7.0 0.00 0.26 0.26 65 1006.4
20210926175515 72 23 1.7 6.1 0.00 0.26 0.26 63 1006.4
20210926175015 72 0 2.6 7.8 0.00 0.26 0.26 62 1006.4
20210926174515 73 270 2.6 9.6 0.00 0.26 0.26 60 1006.4
20210926174015 73 45 2.6 10.4 0.00 0.26 0.26 64 1006.3
20210926173515 73 293 2.6 9.6 0.00 0.26 0.26 63 1006.3
20210926173015 73 338 2.6 7.0 0.00 0.26 0.26 62 1006.4
20210926172515 72 0 2.6 7.8 0.00 0.26 0.26 67 1006.5
20210926172015 71 68 1.7 7.0 0.00 0.26 0.26 64 1006.5
20210926171515 72 0 2.6 8.7 0.00 0.26 0.26 62 1006.5
20210926171015 72 23 1.7 4.3 0.00 0.26 0.26 66 1006.6
20210926170515 72 23 1.7 5.2 0.00 0.26 0.26 64 1006.6
20210926170015 72 0 1.7 7.0 0.00 0.26 0.26 68 1006.6
20210926165515 72 0 0.9 3.5 0.00 0.26 0.26 65 1006.6
20210926165015 72 338 1.7 6.1 0.00 0.26 0.26 66 1006.6
20210926164515 71 0 1.7 5.2 0.00 0.26 0.26 65 1006.6
20210926164015 72 0 1.7 7.0 0.00 0.26 0.26 67 1006.7
20210926163515 71 23 0.9 3.5 0.00 0.26 0.26 70 1006.6
20210926163015 72 315 2.6 6.1 0.00 0.26 0.26 68 1006.6
20210926162515 72 315 1.7 6.1 0.00 0.26 0.26 69 1006.7
20210926162015 72 338 1.7 4.3 0.00 0.26 0.26 69 1006.7
20210926161515 71 270 0.9 3.5 0.00 0.26 0.26 69 1006.7
20210926161015 71 293 1.7 3.5 0.00 0.26 0.26 67 1006.7
20210926160517 71 0 0.9 2.6 0.00 0.26 0.26 68 1006.8
20210926160017 71 293 1.7 6.1 0.00 0.26 0.26 69 1006.9
20210926155517 71 315 1.7 3.5 0.00 0.26 0.26 69 1007.0
20210926155017 71 338 0.9 3.5 0.00 0.26 0.26 72 1006.9
20210926154517 70 338 1.7 5.2 0.00 0.26 0.26 68 1007.0
20210926154017 70 23 0.9 3.5 0.00 0.26 0.26 72 1007.0
20210926153517 70 0 1.7 5.2 0.00 0.26 0.26 70 1007.1
20210926153017 69 338 0.9 3.5 0.00 0.26 0.26 72 1007.2
20210926152517 69 0 0.9 2.6 0.00 0.26 0.26 74 1007.2
20210926152018 69 0 0.9 3.5 0.00 0.26 0.26 75 1007.4
20210926151517 70 225 0.9 2.6 0.00 0.26 0.26 75 1007.4
20210926151017 69 23 1.7 4.3 0.00 0.26 0.26 76 1007.4
20210926150517 69 338 0.9 3.5 0.00 0.26 0.26 75 1007.5
20210926150017 69 0 1.7 6.1 0.00 0.26 0.26 75 1007.6
20210926145517 68 0 0.9 2.6 0.00 0.26 0.26 76 1007.7
20210926145017 68 0 0.9 2.6 0.00 0.26 0.26 78 1007.7
20210926144517 68 338 0.9 3.5 0.00 0.26 0.26 79 1007.8
20210926144017 68 23 1.7 7.0 0.00 0.26 0.26 77 1007.8
20210926143517 67 68 0.9 2.6 0.00 0.26 0.26 78 1007.8
20210926143017 67 315 1.7 2.6 0.00 0.26 0.26 80 1007.8
20210926142517 67 23 0.9 3.5 0.00 0.26 0.26 83 1007.8
20210926142017 66 23 0.9 4.3 0.00 0.26 0.26 81 1007.8
20210926141517 66 23 0.9 4.3 0.00 0.26 0.26 80 1007.8
20210926141017 66 113 0.9 2.6 0.00 0.26 0.26 83 1007.8
20210926140517 65 338 0.9 2.6 0.00 0.26 0.26 83 1007.8
20210926140017 65 338 0.9 1.7 0.00 0.26 0.26 83 1007.8
20210926135517 65 0.0 1.7 0.00 0.26 0.26 83 1007.8
20210926135017 65 0.0 2.6 0.00 0.26 0.26 84 1007.8
20210926134517 65 0.0 0.9 0.00 0.26 0.26 84 1007.8
20210926134017 65 45 0.9 2.6 0.00 0.26 0.26 85 1007.8
20210926133517 64 45 0.9 1.7 0.00 0.26 0.26 85 1007.8
20210926133017 64 0.0 2.6 0.00 0.26 0.26 86 1007.8
20210926132516 64 0.0 2.6 0.00 0.26 0.26 88 1007.7
20210926132017 64 0.0 0.0 0.00 0.26 0.26 89 1007.9
20210926131517 64 0.0 0.9 0.00 0.26 0.26 89 1007.8
20210926131016 63 0.0 1.7 0.00 0.26 0.26 90 1007.8
20210926130516 63 0.0 0.0 0.00 0.26 0.26 91 1007.7
20210926130016 63 0.0 2.6 0.00 0.26 0.26 91 1007.8
20210926125517 62 0.0 0.9 0.00 0.26 0.26 91 1007.7
20210926125016 63 0.0 0.9 0.00 0.26 0.26 92 1007.7
20210926124516 62 0.0 0.9 0.01 0.26 0.26 92 1007.7
20210926124017 62 0.0 0.9 0.01 0.26 0.26 92 1007.7
20210926123516 62 0.0 0.9 0.01 0.26 0.26 92 1007.7
20210926123016 62 0.0 0.0 0.01 0.26 0.26 92 1007.7
20210926122517 62 0.0 0.0 0.01 0.26 0.26 92 1007.8
20210926122016 62 0.0 0.0 0.01 0.26 0.26 92 1007.7
20210926121516 62 0.0 0.9 0.01 0.26 0.26 92 1007.8
20210926121017 62 0.0 0.0 0.01 0.26 0.26 92 1007.9
20210926120516 62 0.0 0.0 0.01 0.26 0.26 92 1007.7
20210926120017 62 0.0 0.0 0.01 0.26 0.26 92 1007.7
20210926115516 62 0.0 0.0 0.01 0.26 0.26 93 1007.6
20210926115016 62 0.0 0.0 0.01 0.26 0.26 93 1007.6
20210926114516 62 0.0 0.0 0.00 0.25 0.25 92 1007.6
20210926114017 62 0.0 0.0 0.00 0.25 0.25 92 1007.5
20210926113516 62 0.0 0.0 0.00 0.25 0.25 92 1007.4
20210926113017 62 0.0 0.0 0.00 0.25 0.25 92 1007.5
20210926112517 62 0.0 0.0 0.00 0.25 0.25 92 1007.4
20210926112017 62 0.0 0.0 0.00 0.25 0.25 92 1007.3
20210926111516 62 0.0 0.9 0.00 0.25 0.25 92 1007.5
20210926111016 62 0.0 0.0 0.00 0.25 0.25 92 1007.8
20210926110517 62 0.0 0.0 0.00 0.25 0.25 92 1007.4
20210926110017 62 0.0 0.0 0.00 0.25 0.25 92 1007.3
20210926105516 62 0.0 0.0 0.00 0.25 0.25 92 1007.2
20210926105016 62 0.0 0.0 0.00 0.25 0.25 92 1007.2
20210926104516 62 0.0 0.0 0.00 0.25 0.25 92 1007.2
20210926104016 62 0.0 0.0 0.01 0.25 0.25 92 1007.5
20210926103516 62 0.0 0.0 0.01 0.25 0.25 92 1007.4
20210926103017 62 0.0 0.0 0.02 0.25 0.25 92 1007.3
20210926102516 62 0.0 0.0 0.02 0.25 0.25 92 1007.3
20210926102016 62 0.0 0.0 0.03 0.25 0.25 92 1007.4
20210926101516 62 0.0 0.0 0.03 0.25 0.25 92 1007.5
20210926101016 62 0.0 0.0 0.04 0.25 0.25 92 1007.6
20210926100517 62 0.0 0.0 0.06 0.25 0.25 92 1007.6
20210926100016 62 0.0 0.0 0.09 0.25 0.25 92 1007.6
20210926095516 61 0.0 0.0 0.11 0.25 0.25 92 1007.6
20210926095016 62 0.0 0.0 0.13 0.25 0.25 92 1007.7
20210926094516 61 0.0 0.0 0.16 0.25 0.25 92 1007.8
20210926094016 61 0.0 0.0 0.18 0.24 0.24 91 1007.5
20210926093516 61 0.0 0.0 0.19 0.24 0.24 91 1007.5
20210926093016 62 0.0 0.0 0.20 0.23 0.23 91 1007.9
20210926092516 62 0.0 0.0 0.22 0.23 0.23 91 1007.9
20210926092016 61 0.0 0.0 0.22 0.22 0.22 91 1008.0
20210926091516 61 0.0 0.0 0.22 0.22 0.22 91 1008.0
20210926091016 62 0.0 0.0 0.21 0.21 0.21 91 1008.2
20210926090516 61 0.0 0.0 0.19 0.19 0.19 91 1008.3
20210926090016 62 0.0 0.0 0.16 0.16 0.16 91 1008.4
20210926085516 62 0.0 0.9 0.14 0.14 0.14 91 1008.6
20210926085016 62 0.0 1.7 0.12 0.12 0.12 90 1008.8
20210926084516 62 0.0 0.0 0.09 0.09 0.09 90 1008.9
20210926084016 62 0.0 0.9 0.06 0.06 0.06 90 1008.9
20210926083516 62 0.0 1.7 0.05 0.05 0.05 90 1008.9
20210926083016 62 0.0 0.9 0.03 0.03 0.03 90 1008.9
20210926082516 62 0.0 0.0 0.01 0.01 0.01 90 1008.6
20210926082016 62 0.0 0.9 0.00 0.00 0.00 90 1008.5
20210926081516 62 0.0 0.0 0.00 0.00 0.00 90 1008.5
20210926081016 62 0.0 0.0 0.00 0.00 0.00 90 1008.4
20210926080516 62 0.0 0.0 0.00 0.00 0.00 90 1008.3
20210926080016 62 0.0 0.0 0.00 0.00 0.00 90 1008.4